Location: Newark
(50.0306°N, 2.3272°E)
Time: 08:01:26
(UTC+00:00)

A-11 Canister half - Pass Details

Date: 12 December 2019
Orbit: 1525 x 1684 km, 47.3° (Epoch: 19 January)

Event Time Altitude Azimuth Distance (km) Brightness Sun altitude
Rises 06:20:02 0° 239° (WSW) 4,912 11.3 -12.0°
Reaches altitude 10° 06:23:12 10° 236° (SW) 3,935 10.8 -11.5°
Maximum altitude 06:33:09 64° 159° (SSE) 1,837 9.6 -10.1°
Drops below altitude 10° 06:43:04 10° 81° (E) 3,924 12.1 -8.6°
Sets 06:46:14 0° 79° (ENE) 4,899 12.6 -8.2°
